Overview Statistics Trail Chart Weather Telemetry Raw packets
 

This is the latest recevied weather packets stored in our database for station/object W8KVG. If no packets are shown the sender has not sent any weather packets the latest 10 day(s).

<< 30 31 32 33 34 35 36 >>
Time Temp. Humidity Pressure Rain* Wind** Luminosity Snow
1777748378 5.56° C 79% 1014.9 hPa 0 mm - 59 W/m² -
1777748074 5.56° C 79% 1015 hPa 0 mm - 72 W/m² -
1777747771 6.11° C 81% 1015 hPa 0 mm - 75 W/m² -
1777747466 5.56° C 79% 1015.1 hPa 0 mm - 36 W/m² -
1777747163 6.11° C 77% 1015.2 hPa 0 mm - 33 W/m² -
1777746860 6.67° C 80% 1015.2 hPa 0 mm - 130 W/m² -
1777746554 6.11° C 79% 1015.1 hPa 0 mm - 142 W/m² -
1777746245 6.11° C 80% 1015.1 hPa 0 mm - 134 W/m² -
1777745941 6.11° C 82% 1015.1 hPa 0 mm - 44 W/m² -
1777745639 6.67° C 80% 1015.1 hPa 0 mm - 155 W/m² -
1777745337 6.11° C 83% 1015.3 hPa 0 mm - 219 W/m² -
1777745034 6.11° C 84% 1015.2 hPa 0 mm - 139 W/m² -
1777744730 5.56° C 83% 1015.3 hPa 0 mm - 69 W/m² -
1777744424 5.56° C 83% 1015.2 hPa 0 mm - 99 W/m² -
1777744122 6.11° C 81% 1015.2 hPa 0 mm - 152 W/m² -
1777743819 6.11° C 84% 1015.2 hPa 0 mm - 174 W/m² -
1777743515 5.56° C 84% 1015.2 hPa 0 mm - 84 W/m² -
1777743213 5.56° C 84% 1015.2 hPa 0 mm - 45 W/m² -
1777742911 5.56° C 83% 1015.1 hPa 0 mm - 57 W/m² -
1777742607 5.56° C 84% 1014.9 hPa 0 mm - 127 W/m² -
1777742302 5.56° C 85% 1015.1 hPa 0 mm - 173 W/m² -
1777742000 5.56° C 86% 1015 hPa 0 mm - 122 W/m² -
1777741697 5.56° C 84% 1014.9 hPa 0 mm - 134 W/m² -
1777741393 5.56° C 87% 1015.2 hPa 0 mm - 146 W/m² -
1777741089 5.56° C 88% 1015.1 hPa 0 mm - 137 W/m² -

* Rain latest hour (hover to see other rain measurements)
** Current wind speed in m/s (hover to see current wind gust speed)